Time,TemperatureF,DewpointF,PressureIn,WindDirection,WindDirectionDegrees,WindSpeedMPH,WindSpeedGustMPH,Humidity,HourlyPrecipIn,Conditions,Clouds,dailyrainin,SoftwareType,DateUTC
2013-03-07 00:00:00,75.2,61.4,29.83,NW,315,8.5,8.5,62,0.00,,,0.00,WUHU216HW,2013-03-06 21:00:00,
2013-03-07 00:05:00,74.9,62.3,29.83,NW,315,8.5,10.7,65,0.00,,,0.00,WUHU216HW,2013-03-06 21:05:00,
2013-03-07 00:10:00,74.5,62.4,29.83,West,270,6.3,12.3,66,0.00,,,0.00,WUHU216HW,2013-03-06 21:10:00,
2013-03-07 00:15:00,74.3,62.2,29.83,WNW,293,8.5,12.3,66,0.00,,,0.00,WUHU216HW,2013-03-06 21:15:00,
2013-03-07 00:20:00,74.2,62.5,29.84,WNW,293,15.0,15.0,67,0.00,,,0.00,WUHU216HW,2013-03-06 21:20:00,
2013-03-07 00:25:00,74.0,62.8,29.84,West,270,9.8,15.0,68,0.00,,,0.00,WUHU216HW,2013-03-06 21:25:00,
2013-03-07 00:30:00,74.0,62.8,29.84,West,270,9.8,13.2,68,0.00,,,0.00,WUHU216HW,2013-03-06 21:30:00,
2013-03-07 01:00:00,72.4,64.7,29.84,WNW,293,14.3,14.3,77,0.00,,,0.00,WUHU216HW,2013-03-06 22:00:00,
2013-03-07 01:05:00,72.2,64.5,29.84,NW,315,11.4,14.3,77,0.00,,,0.00,WUHU216HW,2013-03-06 22:05:00,
2013-03-07 01:10:00,72.0,64.0,29.84,NNW,338,14.1,17.9,76,0.00,,,0.00,WUHU216HW,2013-03-06 22:10:00,
2013-03-07 01:15:00,72.4,64.0,29.84,NW,315,13.4,17.9,75,0.00,,,0.00,WUHU216HW,2013-03-06 22:15:00,
2013-03-07 01:20:00,72.4,63.3,29.84,WNW,293,16.3,19.2,73,0.00,,,0.00,WUHU216HW,2013-03-06 22:20:00,
2013-03-07 01:25:00,72.4,63.3,29.84,North,0,12.8,19.2,73,0.00,,,0.00,WUHU216HW,2013-03-06 22:25:00,
2013-03-07 01:30:00,72.2,63.5,29.84,NNW,338,13.4,19.0,74,0.00,,,0.00,WUHU216HW,2013-03-06 22:30:00,
2013-03-07 01:35:00,72.2,63.5,29.84,NW,315,21.3,21.3,74,0.00,,,0.00,WUHU216HW,2013-03-06 22:35:00,
2013-03-07 01:40:00,72.2,63.5,29.84,NW,315,21.3,21.3,74,0.00,,,0.00,WUHU216HW,2013-03-06 22:40:00,
2013-03-07 02:00:00,70.9,62.6,29.84,WSW,248,15.0,15.0,75,0.00,,,0.00,WUHU216HW,2013-03-06 23:00:00,
2013-03-07 02:04:00,70.9,62.9,29.84,NW,315,11.9,17.2,76,0.00,,,0.00,WUHU216HW,2013-03-06 23:04:00,
2013-03-07 02:10:00,70.9,62.6,29.84,NNW,338,11.9,17.2,75,0.00,,,0.00,WUHU216HW,2013-03-06 23:10:00,
2013-03-07 02:15:00,70.7,62.4,29.84,NNW,338,13.6,16.3,75,0.00,,,0.00,WUHU216HW,2013-03-06 23:15:00,
2013-03-07 02:20:00,70.6,61.8,29.84,NNW,338,9.8,14.5,74,0.00,,,0.00,WUHU216HW,2013-03-06 23:20:00,
2013-03-07 02:25:00,70.6,61.8,29.84,NNW,338,12.5,14.5,74,0.00,,,0.00,WUHU216HW,2013-03-06 23:25:00,
2013-03-07 02:30:00,70.6,61.8,29.84,NNW,338,12.5,12.5,74,0.00,,,0.00,WUHU216HW,2013-03-06 23:30:00,
2013-03-07 03:00:00,70.4,60.1,29.85,West,270,11.0,11.0,70,0.00,,,0.00,WUHU216HW,2013-03-07 00:00:00,
2013-03-07 03:04:00,70.4,60.1,29.85,NW,315,17.2,17.2,70,0.00,,,0.00,WUHU216HW,2013-03-07 00:04:00,
2013-03-07 03:09:00,70.2,59.9,29.86,WSW,248,14.8,20.1,70,0.00,,,0.00,WUHU216HW,2013-03-07 00:09:00,
2013-03-07 03:14:00,70.2,59.9,29.86,NW,315,14.5,20.8,70,0.00,,,0.00,WUHU216HW,2013-03-07 00:14:00,
2013-03-07 03:19:00,70.0,60.1,29.86,NW,315,16.3,20.8,71,0.00,,,0.00,WUHU216HW,2013-03-07 00:19:00,
2013-03-07 03:25:00,70.0,60.1,29.86,NW,315,16.3,20.6,71,0.00,,,0.00,WUHU216HW,2013-03-07 00:25:00,
2013-03-07 04:00:00,69.8,59.6,29.87,North,0,7.8,7.8,70,0.00,,,0.00,WUHU216HW,2013-03-07 01:00:00,
2013-03-07 04:05:00,69.7,59.4,29.87,NW,315,15.7,16.1,70,0.00,,,0.00,WUHU216HW,2013-03-07 01:05:00,
2013-03-07 04:10:00,69.7,59.4,29.87,North,0,11.0,16.6,70,0.00,,,0.00,WUHU216HW,2013-03-07 01:10:00,
2013-03-07 04:15:00,69.7,59.4,29.87,West,270,9.8,16.6,70,0.00,,,0.00,WUHU216HW,2013-03-07 01:15:00,
2013-03-07 04:20:00,69.7,59.4,29.87,West,270,9.8,15.7,70,0.00,,,0.00,WUHU216HW,2013-03-07 01:20:00,
2013-03-07 05:00:00,69.5,57.2,29.89,NNW,338,12.5,12.5,65,0.00,,,0.00,WUHU216HW,2013-03-07 02:00:00,
2013-03-07 05:05:00,69.5,57.2,29.89,NNW,338,14.1,17.2,65,0.00,,,0.00,WUHU216HW,2013-03-07 02:05:00,
2013-03-07 05:10:00,69.3,56.2,29.89,NW,315,9.2,18.1,63,0.00,,,0.00,WUHU216HW,2013-03-07 02:10:00,
2013-03-07 05:15:00,69.5,55.9,29.89,North,0,10.5,18.1,62,0.00,,,0.00,WUHU216HW,2013-03-07 02:15:00,
2013-03-07 05:20:00,69.5,55.9,29.90,North,0,10.7,19.7,62,0.00,,,0.00,WUHU216HW,2013-03-07 02:20:00,
2013-03-07 05:25:00,69.5,55.9,29.90,North,0,10.7,19.7,62,0.00,,,0.00,WUHU216HW,2013-03-07 02:25:00,
2013-03-07 06:00:00,69.5,54.1,29.93,NW,315,10.1,10.1,58,0.00,,,0.00,WUHU216HW,2013-03-07 03:00:00,
2013-03-07 06:05:00,69.5,53.6,29.93,NNW,338,13.2,18.1,57,0.00,,,0.00,WUHU216HW,2013-03-07 03:05:00,
2013-03-07 06:10:00,69.7,53.7,29.93,NNW,338,8.5,18.1,57,0.00,,,0.00,WUHU216HW,2013-03-07 03:10:00,
2013-03-07 06:15:00,69.7,53.7,29.94,NW,315,12.3,15.4,57,0.00,,,0.00,WUHU216HW,2013-03-07 03:15:00,
2013-03-07 06:20:00,69.7,53.7,29.94,NW,315,12.3,12.3,57,0.00,,,0.00,WUHU216HW,2013-03-07 03:20:00,
2013-03-07 07:00:00,70.4,53.9,29.96,NNW,338,9.2,9.2,56,0.00,,,0.00,WUHU216HW,2013-03-07 04:00:00,
2013-03-07 07:05:00,70.4,53.9,29.96,NW,315,12.1,13.4,56,0.00,,,0.00,WUHU216HW,2013-03-07 04:05:00,
2013-03-07 07:10:00,70.6,54.5,29.96,NNW,338,12.8,13.4,57,0.00,,,0.00,WUHU216HW,2013-03-07 04:10:00,
2013-03-07 07:15:00,70.6,54.5,29.96,NNW,338,12.8,12.8,57,0.00,,,0.00,WUHU216HW,2013-03-07 04:15:00,
2013-03-07 08:00:00,72.5,54.4,29.98,NNW,338,12.8,12.8,53,0.00,,,0.00,WUHU216HW,2013-03-07 05:00:00,
2013-03-07 08:01:00,72.5,54.4,29.98,NW,315,13.9,13.9,53,0.00,,,0.00,WUHU216HW,2013-03-07 05:01:00,
2013-03-07 08:06:00,72.4,54.2,29.99,North,0,12.8,19.2,53,0.00,,,0.00,WUHU216HW,2013-03-07 05:06:00,
2013-03-07 08:11:00,72.4,54.2,29.99,NW,315,9.8,19.2,53,0.00,,,0.00,WUHU216HW,2013-03-07 05:11:00,
2013-03-07 08:16:00,72.5,54.8,29.99,NNW,338,7.8,16.1,54,0.00,,,0.00,WUHU216HW,2013-03-07 05:16:00,
2013-03-07 08:21:00,72.4,54.2,29.99,North,0,14.5,17.4,53,0.00,,,0.00,WUHU216HW,2013-03-07 05:21:00,
2013-03-07 08:26:00,72.4,54.2,29.99,NW,315,13.4,19.2,53,0.00,,,0.00,WUHU216HW,2013-03-07 05:26:00,
2013-03-07 10:00:00,75.1,55.8,30.00,North,0,15.4,15.4,51,0.00,,,0.00,WUHU216HW,2013-03-07 07:00:00,
2013-03-07 10:05:00,74.9,55.6,30.00,NNW,338,15.0,22.6,51,0.00,,,0.00,WUHU216HW,2013-03-07 07:05:00,
2013-03-07 10:10:00,75.2,56.0,30.00,NNW,338,15.2,22.6,51,0.00,,,0.00,WUHU216HW,2013-03-07 07:10:00,
2013-03-07 10:15:00,75.2,56.0,30.00,NNW,338,15.2,18.6,51,0.00,,,0.00,WUHU216HW,2013-03-07 07:15:00,
2013-03-07 10:20:00,75.2,56.0,30.00,NNW,338,15.2,15.2,51,0.00,,,0.00,WUHU216HW,2013-03-07 07:20:00,
2013-03-07 10:25:00,75.4,56.1,30.00,North,0,16.3,20.1,51,0.00,,,0.00,WUHU216HW,2013-03-07 07:25:00,
2013-03-07 10:30:00,75.2,56.4,30.01,NW,315,18.3,20.1,52,0.00,,,0.00,WUHU216HW,2013-03-07 07:30:00,
2013-03-07 10:35:00,75.1,56.3,30.00,North,0,15.0,20.1,52,0.00,,,0.00,WUHU216HW,2013-03-07 07:35:00,
2013-03-07 10:40:00,75.2,57.0,30.00,West,270,14.8,20.1,53,0.00,,,0.00,WUHU216HW,2013-03-07 07:40:00,
2013-03-07 10:45:00,75.2,56.0,30.00,North,0,12.1,21.9,51,0.00,,,0.00,WUHU216HW,2013-03-07 07:45:00,
2013-03-07 10:50:00,75.2,57.0,30.00,NNW,338,16.3,23.0,53,0.00,,,0.00,WUHU216HW,2013-03-07 07:50:00,
2013-03-07 10:55:00,75.2,57.4,30.00,NNW,338,15.0,23.0,54,0.00,,,0.00,WUHU216HW,2013-03-07 07:55:00,
2013-03-07 11:00:00,75.2,58.0,30.01,NNW,338,12.8,20.8,55,0.00,,,0.00,WUHU216HW,2013-03-07 08:00:00,
2013-03-07 11:05:00,75.4,57.2,30.00,NNW,338,17.2,20.8,53,0.00,,,0.00,WUHU216HW,2013-03-07 08:05:00,
2013-03-07 11:10:00,75.6,55.2,30.00,NE,45,16.8,17.9,49,0.00,,,0.00,WUHU216HW,2013-03-07 08:10:00,
2013-03-07 11:15:00,75.6,53.9,30.00,WNW,293,15.7,19.2,47,0.00,,,0.00,WUHU216HW,2013-03-07 08:15:00,
2013-03-07 11:20:00,75.8,54.7,30.00,NW,315,16.6,19.2,48,0.00,,,0.00,WUHU216HW,2013-03-07 08:20:00,
2013-03-07 11:25:00,76.0,55.4,30.00,NNW,338,12.8,19.2,49,0.00,,,0.00,WUHU216HW,2013-03-07 08:25:00,
2013-03-07 11:30:00,76.3,54.5,30.00,NNW,338,16.3,18.6,47,0.00,,,0.00,WUHU216HW,2013-03-07 08:30:00,
2013-03-07 11:35:00,76.3,55.2,30.00,NW,315,7.8,18.6,48,0.00,,,0.00,WUHU216HW,2013-03-07 08:35:00,
2013-03-07 11:40:00,76.7,55.5,30.00,North,0,13.4,20.1,48,0.00,,,0.00,WUHU216HW,2013-03-07 08:40:00,
2013-03-07 11:45:00,76.7,54.3,29.99,NNE,23,12.5,22.1,46,0.00,,,0.00,WUHU216HW,2013-03-07 08:45:00,
2013-03-07 11:50:00,76.7,55.5,29.99,NE,45,10.7,22.1,48,0.00,,,0.00,WUHU216HW,2013-03-07 08:50:00,
2013-03-07 11:55:00,76.0,54.9,29.99,North,0,9.2,21.5,48,0.00,,,0.00,WUHU216HW,2013-03-07 08:55:00,
2013-03-07 12:00:00,76.0,54.9,29.99,NNE,23,14.3,19.0,48,0.00,,,0.00,WUHU216HW,2013-03-07 09:00:00,
2013-03-07 12:05:00,76.1,54.5,29.99,North,0,13.0,19.0,47,0.00,,,0.00,WUHU216HW,2013-03-07 09:05:00,
2013-03-07 12:10:00,76.0,54.9,29.99,NW,315,9.8,18.1,48,0.00,,,0.00,WUHU216HW,2013-03-07 09:10:00,
2013-03-07 12:15:00,76.3,54.5,29.99,North,0,14.3,19.0,47,0.00,,,0.00,WUHU216HW,2013-03-07 09:15:00,
2013-03-07 12:20:00,76.3,53.4,29.99,NNW,338,13.2,20.4,45,0.00,,,0.00,WUHU216HW,2013-03-07 09:20:00,
2013-03-07 12:25:00,76.1,53.8,29.99,North,0,17.0,20.4,46,0.00,,,0.00,WUHU216HW,2013-03-07 09:25:00,
2013-03-07 12:30:00,76.3,54.0,29.99,NNE,23,14.8,18.6,46,0.00,,,0.00,WUHU216HW,2013-03-07 09:30:00,
2013-03-07 12:35:00,76.3,52.7,29.99,NW,315,13.9,21.9,44,0.00,,,0.00,WUHU216HW,2013-03-07 09:35:00,
2013-03-07 12:40:00,76.7,54.9,29.99,North,0,15.0,21.9,47,0.00,,,0.00,WUHU216HW,2013-03-07 09:40:00,
2013-03-07 12:45:00,76.5,54.7,29.99,North,0,16.6,18.6,47,0.00,,,0.00,WUHU216HW,2013-03-07 09:45:00,
2013-03-07 12:50:00,76.7,55.5,29.99,NNW,338,8.7,18.3,48,0.00,,,0.00,WUHU216HW,2013-03-07 09:50:00,
2013-03-07 12:55:00,76.3,56.4,29.99,NNE,23,11.0,18.6,50,0.00,,,0.00,WUHU216HW,2013-03-07 09:55:00,
2013-03-07 13:00:00,76.5,55.4,29.99,NW,315,9.6,22.6,48,0.00,,,0.00,WUHU216HW,2013-03-07 10:00:00,
2013-03-07 13:05:00,76.7,54.9,29.99,North,0,13.9,22.6,47,0.00,,,0.00,WUHU216HW,2013-03-07 10:05:00,
2013-03-07 13:10:00,76.3,55.2,29.99,North,0,13.2,19.2,48,0.00,,,0.00,WUHU216HW,2013-03-07 10:10:00,
2013-03-07 13:15:00,76.7,54.9,29.98,NE,45,14.3,19.2,47,0.00,,,0.00,WUHU216HW,2013-03-07 10:15:00,
2013-03-07 13:20:00,76.3,54.5,29.98,WNW,293,12.8,21.7,47,0.00,,,0.00,WUHU216HW,2013-03-07 10:20:00,
2013-03-07 13:25:00,76.3,54.0,29.98,NNE,23,12.1,21.7,46,0.00,,,0.00,WUHU216HW,2013-03-07 10:25:00,
2013-03-07 13:30:00,76.5,54.1,29.98,NNW,338,15.2,17.9,46,0.00,,,0.00,WUHU216HW,2013-03-07 10:30:00,
2013-03-07 13:35:00,76.7,54.3,29.97,NNE,23,9.8,17.7,46,0.00,,,0.00,WUHU216HW,2013-03-07 10:35:00,
2013-03-07 13:40:00,76.7,55.5,29.98,NNE,23,17.4,17.4,48,0.00,,,0.00,WUHU216HW,2013-03-07 10:40:00,
2013-03-07 13:45:00,76.5,55.4,29.98,North,0,17.9,20.1,48,0.00,,,0.00,WUHU216HW,2013-03-07 10:45:00,
2013-03-07 13:50:00,76.3,55.8,29.98,NW,315,14.5,20.1,49,0.00,,,0.00,WUHU216HW,2013-03-07 10:50:00,
2013-03-07 13:56:00,76.1,54.5,29.97,NNE,23,15.4,18.8,47,0.00,,,0.00,WUHU216HW,2013-03-07 10:56:00,
2013-03-07 14:01:00,76.1,54.5,29.97,North,0,25.9,25.9,47,0.00,,,0.00,WUHU216HW,2013-03-07 11:01:00,
2013-03-07 14:06:00,76.1,55.0,29.97,North,0,13.2,25.9,48,0.00,,,0.00,WUHU216HW,2013-03-07 11:06:00,
2013-03-07 14:11:00,76.0,54.3,29.97,North,0,12.5,25.9,47,0.00,,,0.00,WUHU216HW,2013-03-07 11:11:00,
2013-03-07 14:16:00,76.0,52.4,29.97,North,0,15.0,24.8,44,0.00,,,0.00,WUHU216HW,2013-03-07 11:16:00,
2013-03-07 14:21:00,76.0,53.6,29.97,NNW,338,16.3,24.8,46,0.00,,,0.00,WUHU216HW,2013-03-07 11:21:00,
2013-03-07 14:26:00,76.1,51.9,29.97,NNE,23,14.3,22.4,43,0.00,,,0.00,WUHU216HW,2013-03-07 11:26:00,
2013-03-07 14:31:00,75.8,52.8,29.97,North,0,9.8,22.4,45,0.00,,,0.00,WUHU216HW,2013-03-07 11:31:00,
2013-03-07 14:36:00,75.8,52.8,29.97,NE,45,8.9,20.8,45,0.00,,,0.00,WUHU216HW,2013-03-07 11:36:00,
2013-03-07 14:41:00,75.2,52.4,29.97,NNW,338,15.2,19.2,45,0.00,,,0.00,WUHU216HW,2013-03-07 11:41:00,
2013-03-07 14:46:00,75.4,52.6,29.97,North,0,15.4,19.2,45,0.00,,,0.00,WUHU216HW,2013-03-07 11:46:00,
2013-03-07 14:51:00,75.4,53.2,29.97,North,0,6.9,19.9,46,0.00,,,0.00,WUHU216HW,2013-03-07 11:51:00,
2013-03-07 14:56:00,75.6,52.8,29.97,NNE,23,14.3,19.9,45,0.00,,,0.00,WUHU216HW,2013-03-07 11:56:00,
2013-03-07 15:01:00,75.1,52.2,29.97,NNW,338,15.0,19.9,45,0.00,,,0.00,WUHU216HW,2013-03-07 12:01:00,
2013-03-07 15:06:00,74.9,50.2,29.98,WNW,293,12.1,19.7,42,0.00,,,0.00,WUHU216HW,2013-03-07 12:06:00,
2013-03-07 15:11:00,75.1,51.0,29.98,North,0,13.4,20.8,43,0.00,,,0.00,WUHU216HW,2013-03-07 12:11:00,
2013-03-07 15:16:00,74.7,51.3,29.98,NNW,338,13.4,20.8,44,0.00,,,0.00,WUHU216HW,2013-03-07 12:16:00,
2013-03-07 15:21:00,74.5,51.7,29.98,NNE,23,14.3,17.9,45,0.00,,,0.00,WUHU216HW,2013-03-07 12:21:00,
2013-03-07 15:26:00,74.5,50.5,29.98,North,0,13.9,17.9,43,0.00,,,0.00,WUHU216HW,2013-03-07 12:26:00,
2013-03-07 15:31:00,74.7,51.3,29.98,NNW,338,13.6,17.9,44,0.00,,,0.00,WUHU216HW,2013-03-07 12:31:00,
2013-03-07 15:36:00,74.7,50.7,29.98,North,0,13.6,15.7,43,0.00,,,0.00,WUHU216HW,2013-03-07 12:36:00,
2013-03-07 15:41:00,74.5,51.1,29.98,North,0,7.6,18.8,44,0.00,,,0.00,WUHU216HW,2013-03-07 12:41:00,
2013-03-07 15:46:00,74.2,50.8,29.99,NNE,23,10.5,18.8,44,0.00,,,0.00,WUHU216HW,2013-03-07 12:46:00,
2013-03-07 15:51:00,74.0,50.0,29.99,NNW,338,15.0,18.8,43,0.00,,,0.00,WUHU216HW,2013-03-07 12:51:00,
2013-03-07 15:56:00,73.8,49.2,29.99,NE,45,17.2,18.8,42,0.00,,,0.00,WUHU216HW,2013-03-07 12:56:00,
2013-03-07 16:01:00,73.8,49.9,29.99,NW,315,9.6,19.2,43,0.00,,,0.00,WUHU216HW,2013-03-07 13:01:00,
2013-03-07 16:06:00,73.8,49.2,29.99,NNW,338,10.5,19.2,42,0.00,,,0.00,WUHU216HW,2013-03-07 13:06:00,
2013-03-07 16:12:00,73.4,50.0,29.99,North,0,14.8,15.7,44,0.00,,,0.00,WUHU216HW,2013-03-07 13:12:00,
2013-03-07 16:17:00,73.4,50.0,29.99,North,0,9.6,15.2,44,0.00,,,0.00,WUHU216HW,2013-03-07 13:17:00,
2013-03-07 16:22:00,73.3,50.0,30.00,NW,315,7.8,14.8,44,0.00,,,0.00,WUHU216HW,2013-03-07 13:22:00,
2013-03-07 16:27:00,73.1,50.3,30.00,NNW,338,7.8,18.3,45,0.00,,,0.00,WUHU216HW,2013-03-07 13:27:00,
2013-03-07 16:32:00,72.9,50.2,30.00,ESE,113,13.4,18.3,45,0.00,,,0.00,WUHU216HW,2013-03-07 13:32:00,
2013-03-07 16:37:00,72.7,50.6,30.00,NNE,23,12.5,16.3,46,0.00,,,0.00,WUHU216HW,2013-03-07 13:37:00,
2013-03-07 16:42:00,72.4,50.3,30.00,NE,45,9.4,17.9,46,0.00,,,0.00,WUHU216HW,2013-03-07 13:42:00,
2013-03-07 16:47:00,72.4,50.9,30.00,NNW,338,9.8,17.9,47,0.00,,,0.00,WUHU216HW,2013-03-07 13:47:00,
2013-03-07 16:52:00,72.2,49.5,30.00,NW,315,8.5,16.3,45,0.00,,,0.00,WUHU216HW,2013-03-07 13:52:00,
2013-03-07 16:57:00,72.0,48.8,30.00,ENE,68,12.8,16.3,44,0.00,,,0.00,WUHU216HW,2013-03-07 13:57:00,
2013-03-07 17:02:00,71.6,49.1,30.00,NW,315,13.9,15.0,45,0.00,,,0.00,WUHU216HW,2013-03-07 14:02:00,
2013-03-07 17:07:00,71.5,48.3,30.01,NNW,338,7.2,14.3,44,0.00,,,0.00,WUHU216HW,2013-03-07 14:07:00,
2013-03-07 17:12:00,71.1,48.0,30.01,North,0,9.8,13.9,44,0.00,,,0.00,WUHU216HW,2013-03-07 14:12:00,
2013-03-07 17:17:00,71.1,49.1,30.01,NNW,338,13.4,16.6,46,0.00,,,0.00,WUHU216HW,2013-03-07 14:17:00,
2013-03-07 17:23:00,70.9,49.0,30.01,NNW,338,12.1,16.6,46,0.00,,,0.00,WUHU216HW,2013-03-07 14:23:00,
2013-03-07 17:28:00,70.6,48.1,30.01,NNW,338,12.1,15.0,45,0.00,,,0.00,WUHU216HW,2013-03-07 14:28:00,
2013-03-07 17:33:00,70.4,48.5,30.01,NNW,338,6.3,15.0,46,0.00,,,0.00,WUHU216HW,2013-03-07 14:33:00,
2013-03-07 17:38:00,70.2,48.3,30.01,North,0,11.4,15.0,46,0.00,,,0.00,WUHU216HW,2013-03-07 14:38:00,
2013-03-07 17:43:00,70.2,49.0,30.02,NNW,338,8.5,15.7,47,0.00,,,0.00,WUHU216HW,2013-03-07 14:43:00,
2013-03-07 17:48:00,70.0,48.8,30.02,North,0,12.3,15.7,47,0.00,,,0.00,WUHU216HW,2013-03-07 14:48:00,
2013-03-07 17:53:00,69.5,47.7,30.02,North,0,8.5,15.7,46,0.00,,,0.00,WUHU216HW,2013-03-07 14:53:00,
2013-03-07 17:58:00,69.3,48.2,30.02,NNE,23,10.5,19.9,47,0.00,,,0.00,WUHU216HW,2013-03-07 14:58:00,
2013-03-07 18:03:00,69.1,48.0,30.02,North,0,11.4,19.9,47,0.00,,,0.00,WUHU216HW,2013-03-07 15:03:00,
2013-03-07 18:08:00,69.1,48.0,30.02,NNW,338,8.5,17.2,47,0.00,,,0.00,WUHU216HW,2013-03-07 15:08:00,
2013-03-07 18:13:00,69.1,48.0,30.02,North,0,11.9,17.2,47,0.00,,,0.00,WUHU216HW,2013-03-07 15:13:00,
2013-03-07 18:18:00,68.9,47.8,30.03,NNW,338,7.8,16.3,47,0.00,,,0.00,WUHU216HW,2013-03-07 15:18:00,
2013-03-07 18:23:00,68.8,47.6,30.02,NW,315,12.1,16.3,47,0.00,,,0.00,WUHU216HW,2013-03-07 15:23:00,
2013-03-07 18:28:00,68.8,47.1,30.02,NW,315,6.3,15.0,46,0.00,,,0.00,WUHU216HW,2013-03-07 15:28:00,
2013-03-07 18:33:00,68.8,47.6,30.03,WNW,293,17.4,17.4,47,0.00,,,0.00,WUHU216HW,2013-03-07 15:33:00,
2013-03-07 18:38:00,68.4,47.9,30.03,NW,315,6.9,17.4,48,0.00,,,0.00,WUHU216HW,2013-03-07 15:38:00,
2013-03-07 18:44:00,68.4,47.9,30.03,NW,315,6.3,18.3,48,0.00,,,0.00,WUHU216HW,2013-03-07 15:44:00,
2013-03-07 18:49:00,68.2,47.8,30.03,NNW,338,13.6,18.3,48,0.00,,,0.00,WUHU216HW,2013-03-07 15:49:00,
2013-03-07 18:54:00,68.0,48.2,30.04,WNW,293,8.3,17.0,49,0.00,,,0.00,WUHU216HW,2013-03-07 15:54:00,
2013-03-07 18:59:00,67.9,48.6,30.04,West,270,12.1,16.1,50,0.00,,,0.00,WUHU216HW,2013-03-07 15:59:00,
2013-03-07 19:04:00,67.9,49.2,30.04,NW,315,9.8,16.8,51,0.00,,,0.00,WUHU216HW,2013-03-07 16:04:00,
2013-03-07 19:09:00,67.9,49.2,30.04,NW,315,9.8,16.8,51,0.00,,,0.00,WUHU216HW,2013-03-07 16:09:00,